Погода в Нерице

Россия / Республика Коми     65°18′10″N   52°41′22″E
темп.,
°C
ветер,
м/с
пор.,
м/с
влажн.,
%
обл.,
%
осадки,
мм/ч
давл.,
гПа
погр.,
м
19 сентября, вс
вс1900:00+3с51276100 0.0 10211438
03:00+3ссз51176100 0.0 10221362
06:00+3ссз51178100 0.0 10221267
09:00+3ссз51178100 0.1 10231135
12:00+5с61172100 0.2 10241329
15:00+4с51071100 0.3 10251433
18:00+4с51068100 0.0 10261377
21:00+3с4970100 0.0 10271199
20 сентября, пн
пн2000:00+3с4872100 0.0 1029992
03:00+3с4870100 0.0 10301047
06:00+3ссз3874100 0.0 1031605
09:00+4ссз3668100 0.0 10331026
12:00+6с4560100 0.0 10331215
15:00+6ссз3563100 0.0 10331118
18:00+4ссз247421 0.0 1033121
21:00+1зсз249096 0.0 103366
21 сентября, вт
вт2100:00+1зсз279098 0.0 1033144
03:00+1зсз3994100 0.0 1032237
06:00+1зсз31093100 0.0 1031302
09:00+5сз477285 0.0 1030452
12:00+8сз465594 0.0 1029934
15:00+9сз36555 0.0 10281046
18:00+5зсз2375100 0.0 102758
21:00+5сз237999 0.0 102784
22 сентября, ср
ср2200:00+5сз2580100 0.0 1027142
03:00+4сз2582100 0.0 1028193
06:00+4сз2485100 0.1 1028146
09:00+6ссз2378100 0.1 1028207
12:00+8сз1270100 0.0 1028444
15:00+9зсз126790 0.0 1028510
18:00+5сз118736 0.0 102810
21:00+3зюз00925 0.0 102810
23 сентября, чт
чт2300:00+3ю11945 0.0 102710
03:00+2ююв119613 0.0 102810
06:00+3ююв219712 0.0 102724
09:00+8ююв25785 0.0 1026376
12:00+11ююв475736 0.0 10251233
15:00+10юв466248 0.0 10241085
18:00+6юв29815 0.0 1023208
21:00+4ююв311835 0.0 1022288